Home   Weather   Sandefjord   Past weeks

Flag for Norway Past Weather in Sandefjord, Norway — Yesterday and Last 2 Weeks

48 °F

Passing clouds.

Feels Like: 44 °F
Forecast: 42 / 49 °F
Wind: 9 mph from Southwest

Location: Torp

Current Time: Oct 27, 2016 at 1:24:22 AM

Latest Report: Oct 27, 2016 at 12:50 AM

Visibility: 6 mi

Pressure: 29.98 "Hg

Humidity: 100%

Dew Point: 48 °F

Location of SandefjordLocation

Past Weather in Sandefjord — Graph


Sandefjord Temperature Yesterday

Maximum temperature yesterday: 48 °F (at 7:20 PM)
Minimum temperature yesterday: 36 °F (at 1:50 AM)
Average temperature yesterday: 42 °F

High & Low Weather Summary for the Past Weeks

High48 °F (Oct 26, 7:20 PM)100% (Oct 13, 8:20 PM)30.57 "Hg (Oct 13, 8:20 PM)
Low32 °F (Oct 14, 11:50 AM)70% (Oct 15, 11:50 AM)29.98 "Hg (Oct 26, 10:20 PM)
Average41 °F95%30.31 "Hg
* Reported Oct 11 11:20 PM — Oct 26 11:50 PM, Sandefjord, Weather by CustomWeather, © 2016

Note: Actual official high and low records may vary slightly from our data, if they occured in-between our weather recording intervals... More about our weather records


Sandefjord Weather History for the Previous 24 Hours

Scroll right to see more
Time TempWeatherWind HumidityBarometerVisibility
11:50 PM
Wed, Oct 26
48 °FPassing clouds.10 mph100%29.98 "Hg3 mi
11:20 PM48 °FMostly cloudy.12 mph100%29.98 "Hg3 mi
10:50 PM48 °FFog.12 mph100%29.98 "Hg2 mi
10:20 PM48 °FFog.14 mph100%29.98 "Hg1 mi
9:50 PM48 °FFog.20 mph100%30.01 "Hg2 mi
9:20 PM48 °FDrizzle. Fog.20 mph100%30.01 "Hg1 mi
8:50 PM48 °FLight rain. Fog.17 mph100%30.01 "Hg1 mi
8:20 PM48 °FDrizzle. Fog.21 mph100%30.04 "Hg2 mi
7:50 PM48 °FDrizzle. Fog.16 mph100%30.04 "Hg1 mi
7:20 PM48 °FDrizzle. Fog.15 mph94%30.07 "Hg2 mi
6:50 PM46 °FDrizzle. Fog.15 mph100%30.07 "Hg2 mi
6:20 PM46 °FDrizzle. Fog.14 mph100%30.07 "Hg3 mi
5:50 PM46 °FDrizzle. Low clouds.14 mph100%30.09 "Hg3 mi
5:20 PM46 °FDrizzle. Partly sunny.14 mph100%30.09 "Hg4 mi
4:50 PM46 °FDrizzle. Partly sunny.13 mph100%30.09 "Hg5 mi
4:20 PM46 °FDrizzle. Partly sunny.12 mph100%30.12 "Hg6 mi
3:50 PM46 °FDrizzle. Broken clouds.13 mph100%30.12 "HgN/A
3:20 PM46 °FDrizzle. Mostly cloudy.14 mph100%30.15 "HgN/A
2:50 PM46 °FPartly sunny.13 mph100%30.15 "HgN/A
2:20 PM46 °FScattered showers. Broken clouds.12 mph100%30.15 "HgN/A
1:50 PM45 °FScattered showers. Broken clouds.8 mph100%30.18 "HgN/A
1:20 PM45 °FBroken clouds.7 mph100%30.18 "HgN/A
12:50 PM45 °FBroken clouds.7 mph100%30.18 "HgN/A
12:20 PM45 °FScattered clouds.3 mph100%30.21 "HgN/A
11:50 AM43 °FScattered clouds.6 mph100%30.21 "HgN/A
11:20 AM41 °FScattered clouds.7 mph100%30.21 "HgN/A
10:50 AM39 °FScattered clouds.2 mph100%30.21 "HgN/A
10:20 AM39 °FScattered clouds.6 mph100%30.21 "HgN/A
9:50 AM39 °FScattered clouds.5 mph100%30.24 "HgN/A
9:20 AM39 °FScattered clouds.6 mph100%30.24 "HgN/A
8:50 AM37 °FScattered clouds.5 mph100%30.24 "HgN/A
8:20 AM37 °FPassing clouds.5 mph100%30.24 "HgN/A
7:50 AM37 °FPassing clouds.3 mph100%30.24 "HgN/A
7:20 AM36 °FClear.5 mph100%30.24 "Hg10 mi
6:50 AM37 °FPassing clouds.6 mph100%30.24 "HgN/A
6:20 AM37 °FClear.7 mph100%30.24 "Hg10 mi
5:50 AM37 °FClear.8 mph100%30.24 "Hg10 mi
5:20 AM37 °FChilly.7 mph100%30.24 "HgN/A
4:50 AM37 °FChilly.7 mph100%30.24 "HgN/A
4:20 AM37 °FChilly.8 mph100%30.24 "HgN/A
3:50 AM37 °FChilly.6 mph100%30.27 "HgN/A
3:20 AM37 °FChilly.8 mph100%30.27 "HgN/A
2:50 AM36 °FChilly.6 mph100%30.27 "HgN/A
2:20 AM36 °FChilly.6 mph100%30.27 "HgN/A
1:50 AM36 °FChilly.5 mph100%30.27 "HgN/A
1:20 AM37 °FChilly.5 mph100%30.27 "Hg6 mi
Weather by CustomWeather, © 2016

See weather overviewHow to use our weather pages